SCP
0 0 0 0 0 0 0 0 0 0 0 0 0 0 0 0 1 0 0 0 0 0 0 0 0 0 0 0 0 0 0 0 0 0 0 0 0 0 0 0 0 0 -0
0 0 0 0 0 0 0 0 0 1 1 1 1 0 0 1 1 1 1 0 0 0 0 0 0 0 0 0 0 0 0 0 0 0 0 0 0 0 0 0 0 0 0
0 0 0 0 0 0 0 0 0 0 1 1 1 1 1 1 1 1 1 1 0 0 0 0 0 0 0 0 0 0 0 0 0 0 0 0 0 0 0 0 0 -0 -0
0 0 0 0 0 0 0 0 0 0 0 0 1 1 1 1 1 0 0 0 0 0 0 0 0 0 0 0 0 0 0 0 0 0 0 0 -0 0 0 0 0 -0 -0
0 0 0 0 0 0 0 0 0 0 0 0 0 0 1 1 1 1 0 0 0 0 0 0 0 0 0 0 0 0 0 0 0 0 0 0 0 0 0 0 0 0 -0
0 0 0 0 0 0 0 0 0 0 0 0 0 0 0 0 0 0 1 0 0 0 0 0 0 0 0 0 0 0 0 0 0 0 0 0 -0 0 0 0 0 0 0
0 0 0 0 0 0 0 0 0 0 0 0 0 0 0 0 0 0 0 0 0 0 0 0 0 0 0 0 0 0 0 0 0 0 0 0 0 0 0 0 0 0 0
0 0 0 0 0 0 0 0 0 0 0 0 0 0 0 0 0 0 0 0 0 0 0 0 0 0 0 0 0 0 0 0 0 0 0 0 0 0 -0 -0 0 0 0
0 0 0 0 0 0 0 0 0 0 0 0 0 0 0 0 0 0 0 0 0 0 0 0 0 0 0 0 0 0 0 0 0 0 0 0 0 0 0 0 0 0 0
0 0 0 0 0 0 0 0 0 0 0 0 0 0 0 0 0 0 0 0 0 0 0 0 0 0 0 0 0 0 0 0 0 0 0 0 0 0 0 0 0 0 0
0 0 0 0 0 0 0 0 0 0 0 0 0 0 0 0 0 0 0 0 0 0 0 0 0 0 0 0 0 0 0 0 0 0 0 0 0 0 0 0 0 0 0
0 0 0 0 0 0 0 0 0 0 0 0 0 0 0 0 0 0 0 0 0 0 0 0 0 0 0 0 0 0 0 0 0 0 0 0 0 0 0 0 0 0 0
0 0 0 0 0 0 0 0 0 0 0 0 0 0 0 0 0 0 0 0 0 0 0 0 0 0 0 0 0 0 0 0 0 0 0 0 0 0 0 0 0 0 0
0 0 0 0 0 0 0 0 0 0 0 0 0 0 0 0 0 0 0 0 0 0 0 0 0 0 0 0 0 0 0 0 0 0 0 0 0 0 0 0 1 0 0
0 0 0 0 0 0 0 0 0 0 0 0 0 0 0 0 0 0 0 0 -0 -0 -0 -0 -0 0 0 0 0 0 0 0 0 0 0 0 0 -0 0 0 0 1 0
0 0 0 0 0 0 0 0 0 0 0 0 0 0 0 0 0 0 0 0 0 0 0 0 0 -0 -0 0 0 0 0 0 0 0 0 0 0 0 0 -0 0 0 0
0 0 0 0 0 0 0 0 0 0 0 0 0 0 0 0 0 0 0 -0 -0 0 0 0 0 0 0 0 0 0 0 0 0 0 0 0 0 0 0 0 0 0 0
0 0 0 0 0 0 0 0 0 0 0 0 0 0 0 0 0 0 0 0 0 -0 0 0 0 0 0 0 0 0 0 0 0 0 0 0 0 0 0 0 0 0 1
0 0 0 0 0 0 0 0 0 0 0 0 0 0 0 0 0 0 0 0 0 0 0 0 0 0 0 0 0 0 0 0 0 0 0 0 0 0 0 0 0 0 0
0 0 0 0 0 0 0 0 0 0 0 0 0 0 0 0 0 -0 0 0 0 0 0 0 0 0 0 0 0 0 0 0 0 0 0 0 0 0 0 0 0 0 0
0 0 0 0 0 0 0 0 0 0 0 0 0 0 0 0 0 -0 -0 -0 0 0 0 0 0 0 0 0 0 0 0 0 0 0 0 0 0 0 0 0 1 0 0
0 0 0 0 0 0 0 0 0 0 0 0 0 0 0 0 -0 -0 -0 0 0 0 0 0 0 0 0 0 0 0 0 0 0 0 0 0 0 0 0 0 0 0 0
0 0 0 0 0 0 0 0 0 0 0 0 0 0 -0 -0 -0 -0 -0 -0 -0 0 0 0 0 0 0 0 0 0 0 0 0 0 0 0 0 0 0 0 0 0 0
0 0 0 0 0 0 0 0 0 0 0 0 0 -0 -0 -0 -0 -0 -0 -0 -0 -0 0 0 0 0 0 0 0 0 0 0 0 0 0 0 0 0 0 0 0 1 0
0 0 0 0 0 0 0 0 0 0 0 0 0 0 0 -0 -0 -0 -0 -0 -0 -0 -0 0 0 0 0 0 0 0 0 0 0 0 0 0 0 0 0 0 0 0 0
0 0 0 0 0 0 0 0 0 0 0 0 0 0 0 0 0 -0 -0 -0 -0 -0 -0 -0 0 0 0 0 0 0 0 0 0 0 0 0 0 0 0 0 0 0 0
Wind_Speed_500mb
21 16 17 16 17 15 12 10 8 6 6 6 7 8 9 9 8 6 4 4 3 3 3 3 4 4 4 4 3 5 6 8 7 7 7 6 4 3 6 10 13 14 15
20 21 17 13 12 13 11 8 6 4 4 4 3 4 6 9 11 10 7 5 4 5 6 7 8 8 9 9 7 7 5 5 5 4 4 6 5 5 4 7 10 13 15
19 16 16 13 10 10 10 7 4 3 4 5 6 7 6 8 10 12 11 9 10 9 11 12 13 15 14 12 10 9 7 5 3 2 3 7 7 6 10 9 6 13 17
17 21 27 15 10 8 7 4 2 1 2 4 6 10 11 11 10 11 13 13 13 13 14 15 17 17 17 16 14 11 10 7 4 4 8 10 10 7 10 10 10 15 19
18 16 22 18 12 9 7 4 1 2 4 5 7 10 12 13 13 14 15 16 16 17 18 20 20 20 19 18 17 15 12 10 9 9 12 14 9 12 11 13 13 17 20
20 18 22 18 14 12 10 7 4 2 2 5 6 9 12 15 16 16 17 21 21 22 22 23 24 24 25 22 21 19 17 15 13 14 16 20 17 22 20 13 17 20 22
23 24 23 20 17 14 10 7 4 2 2 5 7 9 13 17 19 21 21 23 24 26 26 26 28 30 29 28 25 24 22 20 18 19 21 22 27 19 29 21 16 22 25
24 25 23 19 14 11 8 5 1 3 6 7 7 9 10 13 18 22 25 27 29 31 30 30 30 34 35 34 31 29 29 27 25 23 26 25 26 24 28 31 21 19 26
24 22 20 18 15 12 8 4 3 4 8 8 9 10 9 10 15 19 22 27 31 34 35 35 36 38 39 39 38 36 34 34 34 30 29 32 32 29 36 35 31 26 25
21 19 18 16 13 10 8 5 5 7 9 9 10 12 13 13 17 20 22 28 29 31 32 37 39 41 44 44 43 43 41 41 41 38 35 35 37 36 27 35 34 37 28
17 15 13 11 10 7 4 4 7 10 13 14 16 18 20 20 21 23 26 27 30 34 35 39 41 42 46 48 49 48 48 49 46 46 42 38 41 44 42 39 39 39 39
9 7 7 8 8 8 6 6 9 11 13 17 21 24 27 30 31 32 34 36 36 37 38 41 44 46 47 50 51 51 55 56 54 54 51 45 44 47 51 46 44 44 44
10 8 4 3 5 5 6 8 10 13 16 20 25 29 32 36 37 40 41 42 42 43 44 46 48 49 49 51 54 52 53 59 64 60 58 51 49 52 53 54 49 49 49
11 8 6 6 5 6 8 9 12 15 20 25 31 34 38 40 42 43 45 45 47 47 50 51 52 53 56 56 56 60 57 51 57 61 64 59 53 50 58 59 59 58 54
12 8 10 8 8 8 10 13 15 20 24 30 33 36 42 44 44 45 46 49 51 53 54 57 59 61 60 61 62 63 63 62 60 63 63 63 61 61 58 69 63 66 62
13 9 10 11 10 12 13 16 20 24 28 31 36 39 42 43 44 46 49 51 53 55 57 60 63 67 68 67 67 69 69 69 73 68 67 67 63 62 58 70 64 69 68
14 10 10 12 14 13 14 17 21 25 29 34 37 38 41 44 46 49 53 57 58 59 59 59 59 60 65 68 72 74 74 75 73 81 78 73 71 70 67 64 69 74 74
11 12 13 13 15 15 16 18 20 24 28 31 34 37 41 44 48 52 56 60 62 63 64 63 62 63 63 62 66 71 74 78 79 77 81 84 75 74 78 75 70 78 81
10 9 12 14 14 16 18 19 22 23 25 30 34 40 46 49 50 53 55 58 61 61 58 56 55 57 62 65 66 69 74 76 81 80 79 79 80 77 78 82 77 79 83
6 8 9 10 12 13 13 15 16 19 22 28 34 39 45 49 50 51 51 54 56 52 48 46 48 48 49 53 62 69 72 75 75 79 85 83 78 83 80 82 86 80 86
5 7 8 10 11 11 12 14 17 22 27 30 34 38 40 45 49 51 52 54 53 49 43 38 42 46 46 46 56 61 66 65 61 63 67 75 78 77 86 85 83 90 90
5 6 7 8 8 12 15 18 21 24 27 32 37 43 46 47 49 51 51 50 47 47 42 36 35 44 41 35 39 51 33 49 23 17 25 32 45 50 62 80 89 84 91
2 5 6 7 10 12 16 16 17 18 21 27 38 46 50 53 55 53 51 47 45 42 42 39 35 35 43 36 28 19 19 15 60 23 13 18 18 14 30 44 55 69 85
1 1 2 6 11 11 11 11 14 17 22 29 33 39 47 54 59 60 57 50 44 40 36 32 31 33 33 38 36 26 34 47 33 43 33 34 27 35 31 26 29 45 62
6 5 6 5 6 8 10 13 16 17 22 25 26 29 38 47 54 58 61 59 52 45 38 33 30 30 30 34 35 39 37 38 47 56 69 58 60 43 31 29 24 30 33
8 7 9 11 8 9 10 13 15 17 20 22 26 30 34 37 44 51 56 61 60 54 43 36 31 27 29 29 29 32 37 32 35 41 52 57 50 61 73 51 47 39 32
Wind_Direction_500mb
167 164 166 164 172 165 157 150 146 133 116 103 113 135 149 158 166 162 148 126 131 168 218 209 212 226 261 280 278 301 331 339 351 3 23 58 83 132 175 147 144 144 152
166 174 168 170 179 168 155 151 148 155 163 173 175 167 172 179 181 193 204 211 231 240 252 255 256 263 280 292 298 297 323 336 353 3 67 122 148 176 214 158 152 151 158
176 172 171 172 188 166 151 150 147 176 191 212 226 232 228 213 205 206 213 226 237 248 262 270 270 273 275 281 285 293 308 312 348 342 171 149 172 178 197 201 203 190 171
161 168 178 183 178 161 132 111 80 355 308 269 255 250 250 251 245 234 232 238 248 253 260 266 269 273 274 272 276 280 294 292 280 241 205 201 213 234 210 217 218 200 188
163 157 154 158 163 139 122 98 49 340 311 276 264 266 264 262 259 257 260 263 265 267 271 274 273 273 273 270 271 275 280 277 269 253 226 202 229 233 230 246 238 220 209
166 156 152 150 147 138 126 121 115 62 304 275 271 267 265 262 259 265 269 276 278 279 275 273 275 276 278 271 264 267 272 268 257 253 243 223 240 250 241 234 242 235 220
170 158 146 137 134 130 130 131 106 79 340 323 320 294 274 266 264 258 258 264 273 280 281 279 277 276 276 276 272 269 266 263 258 253 248 232 233 244 243 253 237 239 231
158 150 145 145 150 153 149 143 144 322 308 309 312 301 295 284 273 265 261 258 260 266 270 274 277 278 279 277 274 271 269 262 254 252 251 243 232 240 228 233 234 245 249
157 153 156 164 164 161 173 198 253 280 296 318 309 302 295 283 277 272 266 261 260 262 268 273 275 275 277 278 278 274 270 267 263 252 247 244 235 240 232 230 231 240 257
157 157 158 164 169 187 193 209 251 277 290 293 288 284 287 284 281 278 275 272 267 267 265 261 260 265 269 271 271 272 272 269 264 259 250 242 238 247 244 226 232 235 251
164 160 161 173 184 187 225 226 258 271 277 281 283 285 284 280 278 280 279 276 274 271 268 266 268 265 262 265 267 268 269 266 266 265 259 248 240 242 248 245 232 238 239
195 187 181 184 199 208 225 258 263 275 283 288 290 288 288 288 284 281 280 279 278 274 269 268 266 265 265 264 264 264 265 268 266 264 260 254 245 241 242 243 234 233 238
221 241 265 227 217 233 244 255 272 284 295 301 299 298 296 291 289 286 283 281 278 275 273 269 267 267 266 265 262 263 264 261 264 263 262 259 251 243 240 236 237 236 237
216 239 270 283 275 269 289 291 290 297 302 306 302 302 298 295 293 289 287 286 283 282 281 279 275 270 265 263 261 260 257 262 266 262 259 255 249 246 242 239 236 240 235
230 254 276 286 290 303 316 314 307 303 304 304 301 303 298 298 295 293 292 291 291 289 286 284 282 279 274 267 260 258 258 254 261 261 260 254 247 244 247 238 242 240 237
250 272 289 298 305 311 309 313 314 313 312 309 305 301 297 295 295 294 293 293 291 288 287 284 282 281 278 275 268 261 256 253 251 257 258 257 246 242 246 237 242 240 238
242 281 305 314 322 322 318 316 313 312 311 306 304 305 303 303 305 304 302 301 300 297 295 291 285 281 276 273 271 268 263 257 254 252 252 255 251 241 237 241 245 241 237
250 286 308 317 334 336 327 324 319 312 312 312 313 314 312 311 309 307 306 304 302 300 299 298 295 290 285 280 273 267 263 261 257 253 252 249 250 248 240 241 246 240 238
253 286 311 321 329 332 332 329 325 326 323 323 324 322 321 319 316 313 309 305 304 303 303 299 294 293 291 287 286 278 272 263 259 257 253 253 248 247 246 243 245 244 238
259 293 296 309 334 347 347 343 341 343 345 343 340 339 339 335 333 331 325 320 318 316 312 308 305 300 301 298 289 281 277 275 271 257 256 253 252 248 248 246 243 245 243
252 295 317 342 7 8 3 6 1 6 6 2 359 355 352 347 345 346 342 337 333 332 327 322 318 314 315 318 311 301 287 285 284 280 267 263 263 257 251 251 249 245 244
264 312 352 4 23 23 21 23 23 24 23 22 20 15 9 6 1 358 355 352 349 341 338 331 324 317 312 320 318 321 326 309 274 291 274 267 274 268 258 256 257 256 250
317 359 360 15 17 33 43 43 41 40 39 29 23 22 19 16 13 9 7 3 358 352 343 336 326 320 317 314 308 297 324 308 315 291 211 276 292 298 277 271 266 263 261
227 339 308 1 10 25 27 19 16 17 20 21 20 23 23 21 21 17 14 10 7 358 347 339 326 317 314 311 310 295 268 272 294 304 291 267 256 283 290 287 296 268 263
199 226 250 301 335 0 6 4 9 15 20 16 16 18 22 25 23 20 16 14 12 8 2 351 335 321 311 306 298 291 291 286 274 280 293 301 294 287 282 301 322 293 272
191 255 253 275 317 326 355 6 2 7 14 11 14 15 17 18 20 20 19 18 17 12 10 3 354 340 324 312 302 289 281 285 283 289 295 295 302 305 282 290 301 305 292
Wind_Speed_850mb
21 16 17 16 17 15 12 10 8 6 6 6 7 8 9 9 8 6 4 4 3 3 3 3 4 4 4 4 3 5 6 8 7 7 7 6 4 3 6 10 13 14 15
20 21 17 13 12 13 11 8 6 4 4 4 3 4 6 9 11 10 7 5 4 5 6 7 8 8 9 9 7 7 5 5 5 4 4 6 5 5 4 7 10 13 15
19 16 16 13 10 10 10 7 4 3 4 5 6 7 6 8 10 12 11 9 10 9 11 12 13 15 14 12 10 9 7 5 3 2 3 7 7 6 10 9 6 13 17
17 21 27 15 10 8 7 4 2 1 2 4 6 10 11 11 10 11 13 13 13 13 14 15 17 17 17 16 14 11 10 7 4 4 8 10 10 7 10 10 10 15 19
18 16 22 18 12 9 7 4 1 2 4 5 7 10 12 13 13 14 15 16 16 17 18 20 20 20 19 18 17 15 12 10 9 9 12 14 9 12 11 13 13 17 20
20 18 22 18 14 12 10 7 4 2 2 5 6 9 12 15 16 16 17 21 21 22 22 23 24 24 25 22 21 19 17 15 13 14 16 20 17 22 20 13 17 20 22
23 24 23 20 17 14 10 7 4 2 2 5 7 9 13 17 19 21 21 23 24 26 26 26 28 30 29 28 25 24 22 20 18 19 21 22 27 19 29 21 16 22 25
24 25 23 19 14 11 8 5 1 3 6 7 7 9 10 13 18 22 25 27 29 31 30 30 30 34 35 34 31 29 29 27 25 23 26 25 26 24 28 31 21 19 26
24 22 20 18 15 12 8 4 3 4 8 8 9 10 9 10 15 19 22 27 31 34 35 35 36 38 39 39 38 36 34 34 34 30 29 32 32 29 36 35 31 26 25
21 19 18 16 13 10 8 5 5 7 9 9 10 12 13 13 17 20 22 28 29 31 32 37 39 41 44 44 43 43 41 41 41 38 35 35 37 36 27 35 34 37 28
17 15 13 11 10 7 4 4 7 10 13 14 16 18 20 20 21 23 26 27 30 34 35 39 41 42 46 48 49 48 48 49 46 46 42 38 41 44 42 39 39 39 39
9 7 7 8 8 8 6 6 9 11 13 17 21 24 27 30 31 32 34 36 36 37 38 41 44 46 47 50 51 51 55 56 54 54 51 45 44 47 51 46 44 44 44
10 8 4 3 5 5 6 8 10 13 16 20 25 29 32 36 37 40 41 42 42 43 44 46 48 49 49 51 54 52 53 59 64 60 58 51 49 52 53 54 49 49 49
11 8 6 6 5 6 8 9 12 15 20 25 31 34 38 40 42 43 45 45 47 47 50 51 52 53 56 56 56 60 57 51 57 61 64 59 53 50 58 59 59 58 54
12 8 10 8 8 8 10 13 15 20 24 30 33 36 42 44 44 45 46 49 51 53 54 57 59 61 60 61 62 63 63 62 60 63 63 63 61 61 58 69 63 66 62
13 9 10 11 10 12 13 16 20 24 28 31 36 39 42 43 44 46 49 51 53 55 57 60 63 67 68 67 67 69 69 69 73 68 67 67 63 62 58 70 64 69 68
14 10 10 12 14 13 14 17 21 25 29 34 37 38 41 44 46 49 53 57 58 59 59 59 59 60 65 68 72 74 74 75 73 81 78 73 71 70 67 64 69 74 74
11 12 13 13 15 15 16 18 20 24 28 31 34 37 41 44 48 52 56 60 62 63 64 63 62 63 63 62 66 71 74 78 79 77 81 84 75 74 78 75 70 78 81
10 9 12 14 14 16 18 19 22 23 25 30 34 40 46 49 50 53 55 58 61 61 58 56 55 57 62 65 66 69 74 76 81 80 79 79 80 77 78 82 77 79 83
6 8 9 10 12 13 13 15 16 19 22 28 34 39 45 49 50 51 51 54 56 52 48 46 48 48 49 53 62 69 72 75 75 79 85 83 78 83 80 82 86 80 86
5 7 8 10 11 11 12 14 17 22 27 30 34 38 40 45 49 51 52 54 53 49 43 38 42 46 46 46 56 61 66 65 61 63 67 75 78 77 86 85 83 90 90
5 6 7 8 8 12 15 18 21 24 27 32 37 43 46 47 49 51 51 50 47 47 42 36 35 44 41 35 39 51 33 49 23 17 25 32 45 50 62 80 89 84 91
2 5 6 7 10 12 16 16 17 18 21 27 38 46 50 53 55 53 51 47 45 42 42 39 35 35 43 36 28 19 19 15 60 23 13 18 18 14 30 44 55 69 85
1 1 2 6 11 11 11 11 14 17 22 29 33 39 47 54 59 60 57 50 44 40 36 32 31 33 33 38 36 26 34 47 33 43 33 34 27 35 31 26 29 45 62
6 5 6 5 6 8 10 13 16 17 22 25 26 29 38 47 54 58 61 59 52 45 38 33 30 30 30 34 35 39 37 38 47 56 69 58 60 43 31 29 24 30 33
8 7 9 11 8 9 10 13 15 17 20 22 26 30 34 37 44 51 56 61 60 54 43 36 31 27 29 29 29 32 37 32 35 41 52 57 50 61 73 51 47 39 32
Wind_Direction_850mb
167 164 166 164 172 165 157 150 146 133 116 103 113 135 149 158 166 162 148 126 131 168 218 209 212 226 261 280 278 301 331 339 351 3 23 58 83 132 175 147 144 144 152
166 174 168 170 179 168 155 151 148 155 163 173 175 167 172 179 181 193 204 211 231 240 252 255 256 263 280 292 298 297 323 336 353 3 67 122 148 176 214 158 152 151 158
176 172 171 172 188 166 151 150 147 176 191 212 226 232 228 213 205 206 213 226 237 248 262 270 270 273 275 281 285 293 308 312 348 342 171 149 172 178 197 201 203 190 171
161 168 178 183 178 161 132 111 80 355 308 269 255 250 250 251 245 234 232 238 248 253 260 266 269 273 274 272 276 280 294 292 280 241 205 201 213 234 210 217 218 200 188
163 157 154 158 163 139 122 98 49 340 311 276 264 266 264 262 259 257 260 263 265 267 271 274 273 273 273 270 271 275 280 277 269 253 226 202 229 233 230 246 238 220 209
166 156 152 150 147 138 126 121 115 62 304 275 271 267 265 262 259 265 269 276 278 279 275 273 275 276 278 271 264 267 272 268 257 253 243 223 240 250 241 234 242 235 220
170 158 146 137 134 130 130 131 106 79 340 323 320 294 274 266 264 258 258 264 273 280 281 279 277 276 276 276 272 269 266 263 258 253 248 232 233 244 243 253 237 239 231
158 150 145 145 150 153 149 143 144 322 308 309 312 301 295 284 273 265 261 258 260 266 270 274 277 278 279 277 274 271 269 262 254 252 251 243 232 240 228 233 234 245 249
157 153 156 164 164 161 173 198 253 280 296 318 309 302 295 283 277 272 266 261 260 262 268 273 275 275 277 278 278 274 270 267 263 252 247 244 235 240 232 230 231 240 257
157 157 158 164 169 187 193 209 251 277 290 293 288 284 287 284 281 278 275 272 267 267 265 261 260 265 269 271 271 272 272 269 264 259 250 242 238 247 244 226 232 235 251
164 160 161 173 184 187 225 226 258 271 277 281 283 285 284 280 278 280 279 276 274 271 268 266 268 265 262 265 267 268 269 266 266 265 259 248 240 242 248 245 232 238 239
195 187 181 184 199 208 225 258 263 275 283 288 290 288 288 288 284 281 280 279 278 274 269 268 266 265 265 264 264 264 265 268 266 264 260 254 245 241 242 243 234 233 238
221 241 265 227 217 233 244 255 272 284 295 301 299 298 296 291 289 286 283 281 278 275 273 269 267 267 266 265 262 263 264 261 264 263 262 259 251 243 240 236 237 236 237
216 239 270 283 275 269 289 291 290 297 302 306 302 302 298 295 293 289 287 286 283 282 281 279 275 270 265 263 261 260 257 262 266 262 259 255 249 246 242 239 236 240 235
230 254 276 286 290 303 316 314 307 303 304 304 301 303 298 298 295 293 292 291 291 289 286 284 282 279 274 267 260 258 258 254 261 261 260 254 247 244 247 238 242 240 237
250 272 289 298 305 311 309 313 314 313 312 309 305 301 297 295 295 294 293 293 291 288 287 284 282 281 278 275 268 261 256 253 251 257 258 257 246 242 246 237 242 240 238
242 281 305 314 322 322 318 316 313 312 311 306 304 305 303 303 305 304 302 301 300 297 295 291 285 281 276 273 271 268 263 257 254 252 252 255 251 241 237 241 245 241 237
250 286 308 317 334 336 327 324 319 312 312 312 313 314 312 311 309 307 306 304 302 300 299 298 295 290 285 280 273 267 263 261 257 253 252 249 250 248 240 241 246 240 238
253 286 311 321 329 332 332 329 325 326 323 323 324 322 321 319 316 313 309 305 304 303 303 299 294 293 291 287 286 278 272 263 259 257 253 253 248 247 246 243 245 244 238
259 293 296 309 334 347 347 343 341 343 345 343 340 339 339 335 333 331 325 320 318 316 312 308 305 300 301 298 289 281 277 275 271 257 256 253 252 248 248 246 243 245 243
252 295 317 342 7 8 3 6 1 6 6 2 359 355 352 347 345 346 342 337 333 332 327 322 318 314 315 318 311 301 287 285 284 280 267 263 263 257 251 251 249 245 244
264 312 352 4 23 23 21 23 23 24 23 22 20 15 9 6 1 358 355 352 349 341 338 331 324 317 312 320 318 321 326 309 274 291 274 267 274 268 258 256 257 256 250
317 359 360 15 17 33 43 43 41 40 39 29 23 22 19 16 13 9 7 3 358 352 343 336 326 320 317 314 308 297 324 308 315 291 211 276 292 298 277 271 266 263 261
227 339 308 1 10 25 27 19 16 17 20 21 20 23 23 21 21 17 14 10 7 358 347 339 326 317 314 311 310 295 268 272 294 304 291 267 256 283 290 287 296 268 263
199 226 250 301 335 0 6 4 9 15 20 16 16 18 22 25 23 20 16 14 12 8 2 351 335 321 311 306 298 291 291 286 274 280 293 301 294 287 282 301 322 293 272
191 255 253 275 317 326 355 6 2 7 14 11 14 15 17 18 20 20 19 18 17 12 10 3 354 340 324 312 302 289 281 285 283 289 295 295 302 305 282 290 301 305 292